Regional Weather Roundup
Issued by NWS

Home | Current Version | Previous Version | Graphics & Text | Print | Product List | Glossary On
Versions: 1 2 3 4 5 6 7 8 9 10 11 12 13 14 15 16 17 18 19 20 21 22 23 24 25 26 27 28 29 30 31 32 33 34 35 36 37 38 39 40 41 42 43 44 45 46 47 48 49 50
000
ASUS43 KIND 032109
RWRIN

WEATHER ROUNDUP FOR INDIANA
NATIONAL WEATHER SERVICE INDIANAPOLIS IN
400 PM EST TUE MAR 03 2015

NOTE: "FAIR" INDICATES FEW OR NO CLOUDS BELOW 12,000 FEET WITH NO
SIGNIFICANT WEATHER AND/OR OBSTRUCTIONS TO VISIBILITY.

* - STATION DOES NOT REPORT WEATHER SUCH AS PRECIPITATION OR FOG.

+ - STATION NOT QUALITY CONTROLLED BY THE NATIONAL WEATHER SERVICE.
    USE DATA WITH CAUTION...ESPECIALLY DEWPOINT AND RELATIVE
    HUMIDITY OBSERVATIONS.

INZ001>003-010>013-019-020-032200-
NORTHWEST INDIANA

CITY           SKY/WX    TMP DP  RH WIND       PRES   REMARKS
GARY /AIRPORT/ CLOUDY    37  32  81 W17G29    29.67R FOG
KNOX *+          N/A     36  32  87 W22G28    29.66R
LA PORTE +     CLOUDY    37  37 100 W17G23    29.66S FOG
MICHIGAN CITY+ CLOUDY    36  32  87 W17G24    29.67S FOG
MONTICELLO +   CLOUDY    37  37  97 W18G25    29.69R FOG
RENSSELAER +   CLOUDY    36  36 100 SW17G24   29.69R
VALPARAISO     CLOUDY    35  35 100 W22G29    29.66R FOG     WCI  23

$$

LMZ046-743>745-032200-
SOUTHERN LAKE MICHIGAN

STATION/POSITION TIME  TEMP WIND        PRES
                       AIR  DIR/SP/G
                 (UTC) (F)  (DEG/KT/KT) (MB)
MICHIGAN CITY    2100   34  220/ 20/ 23   N/A

$$

INZ004-005-014>016-021>024-032200-
NORTH CENTRAL INDIANA

CITY           SKY/WX    TMP DP  RH WIND       PRES   REMARKS
ELKHART        DRIZZLE   36  32  87 W15G26    29.63S
GOSHEN         CLOUDY    35  33  92 SW15      29.64S FOG     WCI  25
LOGANSPORT +   CLOUDY    36  36 100 W20G29    29.69S FOG
PERU/GRISSOM   LGT RAIN  38  37  94 W22       29.67R
ROCHESTER +    CLOUDY    37  37 100 W16G24    29.68R FOG
SOUTH BEND     FOG       35  33  92 W14       29.65R VSB 1   WCI  26
WARSAW +       RAIN      36  34  93 W13G21    29.64S

$$

INZ006>009-017-018-025>027-032200-
NORTHEAST INDIANA

CITY           SKY/WX    TMP DP  RH WIND       PRES   REMARKS
ANGOLA *+      CLOUDY    34  34 100 SW14      29.62S WCI  24
AUBURN +       CLOUDY    36  32  87 SW9G16    29.65S FOG
FORT WAYNE     DRIZZLE   37  35  92 SW21      29.66S FOG
HUNTINGTON +   CLOUDY    37  34  87 SW14      29.66S

$$

INZ028-029-035-036-043>045-051>053-032200-
WEST CENTRAL INDIANA

CITY           SKY/WX    TMP DP  RH WIND       PRES   REMARKS
CRAWFORDSVL +  LGT SNOW  38  36  93 SW18G24   29.74S
GREENCASTLE +  CLOUDY    39  36  87 SW9       29.76S FOG
LAFAYETTE      CLOUDY    39  37  92 W14G22    29.71S
TERRE HAUTE    CLOUDY    40  39  97 SW9       29.77F FOG

$$

INZ030>032-037>040-046>048-054>057-064-065-032200-
CENTRAL INDIANA

CITY           SKY/WX    TMP DP  RH WIND       PRES   REMARKS
ANDERSON       FOG       37  37 100 SW12G17   29.73S VSB 1
CP ATTERBURY + DRIZZLE   46  43  87 SW14      29.76S
COLUMBUS       RAIN      45  41  87 SW12      29.77F FOG
FRANKFORT +    CLOUDY    38  38 100 SW20      29.73R FOG
GREENWOOD *+   CLOUDY    43  41  93 SW20G25   29.75S
INDIANAPOLIS   DRIZZLE   40  38  93 SW17      29.74R FOG
-EAGLE CREEK   LGT RAIN  40  40 100 SW10G20   29.74R FOG
KOKOMO *+      CLOUDY    37  36  93 W21       29.70S
MARION +       CLOUDY    36  36  97 SW15G21   29.70S FOG
MT COMFORT *+  CLOUDY    39 N/A N/A SW10      29.74S VSB 3/4
SHELBYVILLE    LGT RAIN  39  37  92 S9        29.75S VSB 1/4
ZIONSVILLE +   DRIZZLE   40  37  88 SW17G26   29.72F

$$

INZ033-034-041-042-049-050-058-059-032200-
EAST CENTRAL INDIANA

CITY           SKY/WX    TMP DP  RH WIND       PRES   REMARKS
MUNCIE         CLOUDY    39  37  92 SW17G29   29.70S FOG

$$

INZ060-061-067>069-081>083-085>088-032200-
SOUTHWEST INDIANA

CITY           SKY/WX    TMP DP  RH WIND       PRES   REMARKS
EVANSVILLE     RAIN      50  48  93 SW14      29.83S VSB 1
HUNTINGBURG *+ CLOUDY    48  46  93 SW16      29.81F
WASHINGTON +   DRIZZLE   43  39  88 SW12      29.81R

$$

INZ062-063-066-070>080-084-089>092-032200-
SOUTH CENTRAL AND SOUTHEAST INDIANA

CITY           SKY/WX    TMP DP  RH WIND       PRES   REMARKS
BLOOMINGTON    LGT RAIN  44  43  96 SW17G25   29.78S FOG
NORTH VERNON + HVY RAIN  41  41 100 SW3       29.79S VSB<1/4
SEYMOUR +      RAIN      43  43 100 W7        29.79R VSB 1/4

$$




USA.gov is the U.S. government's official web portal to all federal, state and local government web resources and services.